This demonstration page uses our WeatherBlox Daily Observations layout. Learn more.

Left ArrowRight Arrow

Hourly Observations for May 23, 2015

Temp ( °F °C ) Dew Point ( °F °C ) Humidity (%) Winds ( mph kmh ) Pressure ( in mb ) Visibility ( mi km ) Precip ( " mm )
12:51 am 00:51 Clear 63 17.2 39 3.9 41 41 NW 13 20 29.81 1010 10 16 0.00 0.00
1:51 am 01:51 Clear 60 15.6 38 3.3 44 44 W 13 20 29.82 1010 10 16 0.00 0.00
2:51 am 02:51 Clear 58 14.4 37 2.8 46 46 W 12 19 29.83 1010 10 16 0.00 0.00
3:51 am 03:51 Clear 56 13.3 36 2.2 47 47 NW 8 13 29.84 1011 10 16 0.00 0.00
4:51 am 04:51 Clear 55 12.8 36 2.2 49 49 NW 8 13 29.85 1011 10 16 0.00 0.00
5:51 am 05:51 Sunny 53 11.7 36 2.2 52 52 NW 6 9 29.88 1012 10 16 0.00 0.00
6:51 am 06:51 Sunny 61 16.1 37 2.8 41 41 WNW 10 17 29.89 1012 10 16 0.00 0.00
7:51 am 07:51 Sunny 64 17.8 35 1.7 34 34 WNW 9 15 29.90 1013 10 16 0.00 0.00
8:51 am 08:51 Sunny 67 19.4 34 1.1 30 30 NW 9 15 29.91 1013 10 16 0.00 0.00
9:51 am 09:51 Sunny 68 20 32 0 26 26 VRB 3 6 29.90 1013 10 16 0.00 0.00
10:51 am 10:51 Sunny 71 21.7 31 -0.6 23 23 W 7 11 29.89 1012 10 16 0.00 0.00
11:51 am 11:51 Sunny 73 22.8 31 -0.6 21 21 W 10 17 29.87 1012 10 16 0.00 0.00
12:51 pm 12:51 Sunny 74 23.3 31 -0.6 20 20 NNW 10 17 29.85 1011 10 16 0.00 0.00
1:51 pm 13:51 Sunny 76 24.4 30 -1.1 18 18 WNW 8 13 29.83 1010 10 16 0.00 0.00
2:51 pm 14:51 Sunny 78 25.6 28 -2.2 16 16 W 14 22 29.80 1009 10 16 0.00 0.00
3:51 pm 15:51 Sunny 79 26.1 26 -3.3 14 14 NNW 8 13 29.78 1008 10 16 0.00 0.00
4:51 pm 16:51 Sunny 79 26.1 24 -4.4 13 13 NNW 13 20 29.77 1008 10 16 0.00 0.00
5:51 pm 17:51 Sunny 76 24.4 27 -2.8 16 16 NW 13 20 29.77 1008 10 16 0.00 0.00
6:51 pm 18:51 Sunny 74 23.3 28 -2.2 18 18 NW 20 31 29.78 1008 10 16 0.00 0.00
7:51 pm 19:51 Clear 70 21.1 27 -2.8 20 20 NW 13 20 29.80 1009 10 16 0.00 0.00
8:51 pm 20:51 Clear 67 19.4 28 -2.2 23 23 NW 13 20 29.82 1010 10 16 0.00 0.00
9:51 pm 21:51 Clear 65 18.3 27 -2.8 24 24 NW 17 28 29.84 1010 10 16 0.00 0.00
10:51 pm 22:51 Clear 63 17.2 28 -2.2 27 27 NW 10 17 29.85 1011 10 16 0.00 0.00
11:51 pm 23:51 Clear 60 15.6 29 -1.7 31 31 NW 9 15 29.84 1011 10 16 0.00 0.00

Powered by AerisWeather